Location: *
(47.8307°S, 178.3954°E)
Time: 06:54:51
(UTC+00:00)

BREEZE-M DEB (TANK) - Pass Details

Date: 12 August 2024
Orbit: 349 x 18503 km, 52.5° (Epoch: 16 September)

Event Time Altitude Azimuth Distance (km) Brightness Sun altitude
Exits shadow 16:48:58 31° 33° (NNE) 878 4.0 -24.6°
Maximum altitude 16:49:22 32° 49° (NE) 900 4.2 -24.5°
Drops below altitude 10° 16:53:51 10° 112° (ESE) 2,724 7.3 -23.8°
Sets 16:58:48 0° 120° (ESE) 5,101 8.8 -22.9°
